Location: Cluj-Napoca
(46.7712°N, 23.6236°E)
Time: 06:56:26
(UTC+03:00)

ISS - Pass Details

Date: 26 March 2020
Orbit: 417 x 423 km, 51.6° (Epoch: 29 March)

Event Time Altitude Azimuth Distance (km) Brightness Sun altitude
Rises 19:15:59 0° 264° (W) 2,355 1.9 -5.8°
Reaches altitude 10° 19:18:08 10° 271° (W) 1,494 0.8 -6.1°
Maximum altitude 19:21:22 44° 345° (NNW) 585 -2.8 -6.7°
Drops below altitude 10° 19:24:37 10° 60° (ENE) 1,498 -1.4 -7.2°
Enters shadow 19:25:37 - 64° (ENE) 1,898 -0.9 -7.4°
